Regional Weather Roundup
Issued by NWS

Home | Current Version | Previous Version | Graphics & Text | Print | Product List | Glossary On
Versions: 1 2 3 4 5 6 7 8 9 10 11 12 13 14 15 16 17 18 19 20 21 22 23 24 25 26 27 28 29 30 31 32 33 34 35 36 37 38 39 40 41 42 43 44 45 46 47 48 49 50
000
ASUS43 KDTX 280001
RWRMI
MICHIGAN HOURLY REGIONAL WEATHER ROUNDUP
NATIONAL WEATHER SERVICE DETROIT/PONTIAC MI
800 PM EDT MON APR 27 2015

NOTE: "FAIR" INDICATES FEW OR NO CLOUDS BELOW 12,000 FEET WITH NO
SIGNIFICANT WEATHER AND/OR OBSTRUCTION TO VISIBILITY.

MIZ047>049-052>055-059>063-066>070-074>076-081>083-280100-
SOUTHEAST LOWER MICHIGAN

CITY           SKY/WX    TMP DP  RH WIND       PRES   REMARKS
ADRIAN         CLOUDY    50  34  54 N10       30.07R
6HR MIN TEMP:  47; 6HR MAX TEMP:  51;

ALMA           CLOUDY    53  32  45 CALM      30.07R
ANN ARBOR      CLOUDY    50  33  52 NE12      30.06R
BAD AXE        CLEAR     46  32  58 N8        30.08R
CARO           CLEAR     48  34  57 CALM      30.06R
DETROIT CITY   PTCLDY    49  35  58 N8        30.07R
6HR MIN TEMP:  47; 6HR MAX TEMP:  52;

DETROIT        MOCLDY    51  34  52 N7        30.06R
6HR MIN TEMP:  49; 6HR MAX TEMP:  52;

FLINT          PTCLDY    51  31  46 N10       30.08R
6HR MIN TEMP:  49; 6HR MAX TEMP:  56;

GROSSE ILE     CLOUDY    52  34  50 N8        30.05R
HILLSDALE      PTCLDY    49  34  54 N7        30.06S
6HR MIN TEMP:  46; 6HR MAX TEMP:  50;

HOWELL         MOCLDY    49  31  50 NE5       30.06R
6HR MIN TEMP:  46; 6HR MAX TEMP:  51;


CITY           SKY/WX    TMP DP  RH WIND       PRES   REMARKS
JACKSON        MOCLDY    48  33  56 N5        30.07R
6HR MIN TEMP:  45; 6HR MAX TEMP:  51;

LAMBERTVILLE   MOCLDY    50  32  50 N6        30.06S
LANSING        CLOUDY    51  33  50 N3        30.07S
6HR MIN TEMP:  47; 6HR MAX TEMP:  55;

LAPEER         FAIR      47  32  55 N3        30.06R
MASON          CLOUDY    49  33  54 N3        30.07R
MONROE         CLOUDY    50  36  57 CALM      30.05R
MT. CLEMENS    MOCLDY    48  37  65 N6        30.03R
6HR MIN TEMP:  47; 6HR MAX TEMP:  51;

PONTIAC        CLOUDY    48  32  53 N8        30.05R
6HR MIN TEMP:  46; 6HR MAX TEMP:  50;

PORT HOPE        N/A     42  35  76 N6        30.06R
6HR MIN TEMP:  42; 6HR MAX TEMP:  46;

PORT HURON     PTCLDY    46  34  61 N6        30.07R
TRI CITIES     PTCLDY    51  35  54 E6        30.07R
6HR MIN TEMP:  50; 6HR MAX TEMP:  56;

MIDLAND        MOCLDY    51  36  56 E8        30.06R
TROY           CLOUDY    50  34  53 N8        30.08R
SAGINAW HB     PTCLDY    50  32  50 NE5       30.06S
$$
MIZ043>046-050>051-056>058-064>065-071>073-077>080-280100-
SOUTHWEST LOWER MICHIGAN

CITY           SKY/WX    TMP DP  RH WIND       PRES   REMARKS
BATTLE CREEK   CLOUDY    51  33  50 NE5       30.08R
6HR MIN TEMP:  50; 6HR MAX TEMP:  53;

BENTON HARBOR  PTCLDY    43  34  70 VRB6      30.10S
6HR MIN TEMP:  42; 6HR MAX TEMP:  46;

BIG RAPIDS     MOCLDY    53  32  46 N6        30.06R
6HR MIN TEMP:  49; 6HR MAX TEMP:  55;

COLDWATER      CLOUDY    48  33  55 CALM      30.07S
6HR MIN TEMP:  47; 6HR MAX TEMP:  51;

FREMONT        FAIR      52  32  46 NW9       30.06S
HOLLAND        CLEAR     51  35  54 NW7       30.09S
6HR MIN TEMP:  49; 6HR MAX TEMP:  52;

GRAND RAPIDS   MOCLDY    52  32  46 NW6       30.07S
6HR MIN TEMP:  50; 6HR MAX TEMP:  57;

IONIA          CLOUDY    52  34  49 CALM      30.06S
KALAMAZOO      CLOUDY    51  36  56 NW7       30.08R
6HR MIN TEMP:  49; 6HR MAX TEMP:  54;

LUDINGTON      CLEAR     51  33  50 NE6       30.10R
MARSHALL       CLOUDY    48  33  57 CALM      30.07R
MOUNT PLEASANT CLOUDY    54  32  43 NW3       30.06R
6HR MIN TEMP:  50; 6HR MAX TEMP:  57;

MUSKEGON       PTCLDY    54  35  48 NW6       30.08S
6HR MIN TEMP:  50; 6HR MAX TEMP:  55;

SOUTH HAVEN    CLEAR     45  35  67 N7        30.10S
$$
MIZ016>042-280100-
NORTHERN LOWER MICHIGAN

CITY           SKY/WX    TMP DP  RH WIND       PRES   REMARKS
BEAVER ISLAND  CLOUDY    48  32  54 NW6       30.12S
6HR MIN TEMP:  47; 6HR MAX TEMP:  54;

BELLAIRE       CLOUDY    50  32  51 N5        30.10S
6HR MIN TEMP:  50; 6HR MAX TEMP:  54;

CADILLAC       CLOUDY    48  32  55 N10       30.08R
CHARLEVOIX     CLOUDY    46  33  62 NW3       30.14S
FRANKFORT      CLEAR     49  30  47 NW3       30.11S
GAYLORD        CLOUDY    47  32  56 VRB5      30.08R
6HR MIN TEMP:  47; 6HR MAX TEMP:  50;

GRAYLING       CLOUDY    49  32  52 CALM      30.08R
6HR MIN TEMP:  49; 6HR MAX TEMP:  53;

HARBOR SPRINGS CLOUDY    50  33  51 NW3       30.09S
HOUGHTON LAKE  CLOUDY    48  33  56 NW13      30.07R
6HR MIN TEMP:  48; 6HR MAX TEMP:  54;

MANISTEE       CLEAR     48  34  57 NW8       30.11S
OSCODA         PTCLDY    48  34  58 NE13      30.06R
PELLSTON       CLOUDY    50  34  54 NE8       30.10R
6HR MIN TEMP:  50; 6HR MAX TEMP:  54;

ROGERS CITY    CLOUDY    49  35  58 NW8       30.10S
TRAVERSE CITY  MOCLDY    50  32  50 N10       30.10R
6HR MIN TEMP:  48; 6HR MAX TEMP:  53;

$$
MIZ007>008-015-280100-
EASTERN UPPER MICHIGAN

CITY           SKY/WX    TMP DP  RH WIND       PRES   REMARKS
KINROSS        CLOUDY    45  34  65 NW13G20   30.10R
6HR MIN TEMP:  45; 6HR MAX TEMP:  48;

MACKINAC ISLAN CLOUDY    46  33  61 N8G16     30.10R
6HR MIN TEMP:  46; 6HR MAX TEMP:  53;

NEWBERRY       CLOUDY    44  34  68 N10       30.13R
S. S. MARIE    CLOUDY    47  33  58 N6        30.10R
6HR MIN TEMP:  46; 6HR MAX TEMP:  50;

$$
MIZ004>006-011>014-085-280100-
CENTRAL UPPER MICHIGAN

CITY           SKY/WX    TMP DP  RH WIND       PRES   REMARKS
MANISTIQUE     PTCLDY    45  32  60 N10       30.14R
6HR MIN TEMP:  45; 6HR MAX TEMP:  54;

ESCANABA       CLEAR     50  30  46 NE12G18   30.13R
6HR MIN TEMP:  50; 6HR MAX TEMP:  55;

MENOMINEE      CLEAR     48  34  57 E8        30.12R
6HR MIN TEMP:  48; 6HR MAX TEMP:  52;

SAWYER-GWINN   CLEAR     43  32  65 NE12      30.15R
$$
MIZ001>003-009>011-084-280100-
WESTERN UPPER MICHIGAN

CITY           SKY/WX    TMP DP  RH WIND       PRES   REMARKS
IRON MOUNTAIN  CLEAR     60  27  28 N10       30.09S
6HR MIN TEMP:  59; 6HR MAX TEMP:  64;

HOUGHTON       CLEAR     50  33  52 E6        30.15F
6HR MIN TEMP:  49; 6HR MAX TEMP:  54;

COPPER HARBOR    N/A     40  33  76 N10       30.17S WCI  33
6HR MIN TEMP:  38; 6HR MAX TEMP:  43;

IRONWOOD       CLEAR     57  28  33 NE6       30.13F
6HR MIN TEMP:  52; 6HR MAX TEMP:  57;

$$

ABBREVIATIONS USED IN REMARKS
   TC - TEMPERATURE IN CELSIUS
  WCI - WIND CHILL INDEX
   HX - HEAT INDEX
  VSB - VISIBILITY



USA.gov is the U.S. government's official web portal to all federal, state and local government web resources and services.